RASCOM-QAF 1R

Last updated on Thu Aug 13 2026 00:02:58 GMT+0000 (Coordinated Universal Time)

1 36831U 10037B 26224.57252814 .00000001 00000+0 00000+0 0 9991 2 36831 0.0350 97.8318 0005648 33.9602 38.2285 1.00273038 58873
UTC large
Height (km)
Speed (km/s)
/
Latitude / Longitude
Inclination (degrees)
Orbital Period (minutes)
Azimuth
Elevation
Range (km)
Doppler Factor

Next 0 passes for location: London (51.5072 / 0.1276)

No passes found over London.
RASCOM-QAF 1R